sat.trackr.live / text

‹ back to catalog

ASTRA 5B (EGNOS/PRN 123)

NORAD 39617 · 2014-011B

PAYLOAD ACTIVE UNKNOWN

§ Identity

Operator
Country
SES
Launch date
2014-03-22
Launch site
FRGUI
Launch vehicle
Mass (kg)
RCS (m²)
21.62

Purposes: comms, nav

External: N2YO · Heavens-Above · Gunter

§ Orbital elements

Epoch: 2026-05-25T03:51:16.622784Z

Period
1,436.11 min
Inclination
0.0546°
Eccentricity
0.0002546
Mean motion
1.00270668 rev/d
Perigee alt
35,776.2 km
Apogee alt
35,797.6 km
Semi-major
42,165.0 km
B*
0.0000e+0
RAAN
319.7795°
Arg perigee
72.2965°
Mean anomaly
291.9764°
Rev number
4,443

§ Raw data

ASTRA 5B (EGNOS/PRN 123)1 39617U 14011B   26145.16060906  .00000135  00000+0  00000+0 0  99962 39617   0.0546 319.7795 0002546  72.2965 291.9764  1.00270668 44435

JSON: /api/v1/satellites/39617 · /tle

For live sub-satellite position, see the globe view (requires WebGL).

§ Visibility from observer

Set your observer location to see the next 7 days of passes ≥ 10°. The values pass through the URL so the page stays shareable.

No JS? Fill the form by hand. The geolocation button needs JavaScript.